Location: ?????
(44.4284°N, 135.2222°E)
Time: 14:21:15
(UTC+00:00)

Cosmos 1892 - Pass Details

Date: 19 May 2025
Orbit: 368 x 377 km, 82.5° (Epoch: 20 June)

Event Time Altitude Azimuth Distance (km) Brightness Sun altitude
Exits shadow 16:58:21 23° 118° (ESE) 890 3.9 -19.8°
Maximum altitude 16:59:10 26° 92° (E) 817 4.0 -19.7°
Drops below altitude 10° 17:01:49 10° 33° (NNE) 1,440 6.2 -19.5°
Enters shadow 17:55:37 -70° 190° (S) 12,357 9.6 -13.7°
